Location: Schommer Observatory
(40.5200°N, 74.4500°W)
Time: 13:32:55
(UTC-04:00)

Envisat - Pass Details

Date: 25 May 2018
Orbit: 764 x 766 km, 98.2° (Epoch: 21 August)

Event Time Altitude Azimuth Distance (km) Brightness Sun altitude
Rises 20:42:38 0° 181° (S) 3,214 5.9 -5.0°
Reaches altitude 10° 20:45:01 10° 187° (S) 2,292 5.2 -5.4°
Maximum altitude 20:49:52 47° 261° (W) 1,012 4.1 -6.2°
Drops below altitude 10° 20:54:46 10° 335° (NNW) 2,309 6.6 -6.9°
Sets 20:57:10 0° 341° (NNW) 3,240 7.2 -7.3°
